Location: Recife
(8.0585°S, 34.8848°W)
Time: 10:23:25
(UTC-03:00)

Courier 1B Rocket - Pass Details

Date: 22 April 2026
Orbit: 920 x 1201 km, 28.2° (Epoch: 13 May)

Event Time Altitude Azimuth Distance (km) Brightness Sun altitude
Rises 12:47:33 0° 256° (WSW) 3,959 8.4 59.8°
Reaches altitude 10° 12:50:30 10° 264° (W) 3,034 8.0 59.3°
Maximum altitude 12:57:25 39° 330° (NNW) 1,700 7.8 58.0°
Drops below altitude 10° 13:04:34 10° 36° (NE) 3,121 7.8 56.6°
Sets 13:07:39 0° 43° (NE) 4,083 8.2 56.0°
